Weather History for Morristown, NJ

Change the Weather History Date:

Thursday, November 21, 2013

  Actual Average Record
Temperature  
Mean Temperature 36 °F -  
Max Temperature 50 °F 53 °F 78 °F (1953)
Min Temperature 21 °F 30 °F 14 °F (1951)
Degree Days  
Heating Degree Days 30    
Moisture  
Dew Point 27 °F    
Average Humidity 75    
Maximum Humidity 93    
Minimum Humidity 43    
Precipitation  
Precipitation 0.00 in - - ()
Sea Level Pressure  
Sea Level Pressure 30.54 in    
Wind  
Wind Speed 1 mph (ESE)    
Max Wind Speed 7 mph    
Max Gust Speed -    
Visibility 12 miles    
Events      
Averages and records for this station are not official NWS values.
T = Trace of Precipitation, MM = Missing Value Source: NWS Daily Summary

Daily Weather History Graph

Daily Weather History Graph

Search for Another Location

Airport:

Trip Planner

Search our weather history database for the weather conditions in past years. The results will help you decide how hot, cold, wet, or windy it might be!

Date:

Astronomy

Nov. 21, 2013 Rise Set
Actual Time 6:51 AM EST 4:34 PM EST
Civil Twilight 6:22 AM EST 5:04 PM EST
Nautical Twilight 5:48 AM EST 5:38 PM EST
Astronomical Twilight 5:15 AM EST 6:10 PM EST
Moon 8:09 PM EST (11/21) 9:56 AM EST (11/21)
Length of Visible Light 10h 42m
Length of Day
9h 43m
Waning Gibbous, 85% of the Moon is Illuminated
Nov 21
Waning Gibbous
Nov 25
Last Quarter
Dec 2
New
Dec 9
First Quarter
Dec 17
Full

Hourly Weather History & Observations

Time (EST) Temp. Windchill Dew Point Humidity Pressure Visibility Wind Dir Wind Speed Gust Speed Precip Events Conditions
12:15 AM 24.8 °F - 17.6 °F 74% 30.62 in 10.0 mi Calm Calm - N/A   Clear
12:35 AM 26.6 °F - 19.4 °F 74% 30.62 in 10.0 mi Calm Calm - N/A   Clear
12:55 AM 24.8 °F - 19.4 °F 80% 30.62 in 10.0 mi Calm Calm - N/A   Clear
1:15 AM 24.8 °F - 19.4 °F 80% 30.62 in 10.0 mi Calm Calm - N/A   Clear
1:35 AM 24.8 °F - 19.4 °F 80% 30.63 in 10.0 mi Calm Calm - N/A   Clear
1:55 AM 24.8 °F - 19.4 °F 80% 30.63 in 10.0 mi Calm Calm - N/A   Clear
2:15 AM 23.0 °F - 19.4 °F 86% 30.63 in 10.0 mi Calm Calm - N/A   Clear
2:35 AM 23.0 °F - 17.6 °F 80% 30.62 in 10.0 mi Calm Calm - N/A   Clear
2:55 AM 24.8 °F - 19.4 °F 80% 30.62 in 10.0 mi Calm Calm - N/A   Clear
3:15 AM 21.2 °F - 17.6 °F 86% 30.62 in 10.0 mi Calm Calm - N/A   Clear
3:35 AM 21.2 °F - 17.6 °F 86% 30.62 in 10.0 mi Calm Calm - N/A   Clear
3:55 AM 21.2 °F - 17.6 °F 86% 30.62 in 10.0 mi Calm Calm - N/A   Clear
4:15 AM 21.2 °F - 19.4 °F 93% 30.61 in 10.0 mi Calm Calm - N/A   Clear
4:35 AM 21.2 °F - 17.6 °F 86% 30.61 in 10.0 mi Calm Calm - N/A   Clear
4:55 AM 23.0 °F - 19.4 °F 86% 30.61 in 10.0 mi Calm Calm - N/A   Clear
5:15 AM 21.2 °F - 17.6 °F 86% 30.61 in 10.0 mi Calm Calm - N/A   Clear
5:35 AM 21.2 °F - 17.6 °F 86% 30.61 in 10.0 mi Calm Calm - N/A   Mostly Cloudy
6:45 AM 21.2 °F - 19.4 °F 93% 30.63 in 20.0 mi Calm Calm - N/A   Partly Cloudy
7:45 AM 23.0 °F - 21.2 °F 93% 30.62 in 20.0 mi Calm Calm - N/A   Partly Cloudy
8:45 AM 32.0 °F 28.7 °F 23.0 °F 69% 30.62 in 20.0 mi NE 3.5 mph - N/A   Scattered Clouds
9:45 AM 39.2 °F 35.0 °F 21.2 °F 49% 30.62 in 20.0 mi NE 5.8 mph - N/A   Mostly Cloudy
10:45 AM 42.8 °F 41.1 °F 24.8 °F 49% 30.60 in 20.0 mi NE 3.5 mph - N/A   Mostly Cloudy
11:45 AM 48.2 °F - 26.6 °F 43% 30.55 in 20.0 mi East 3.5 mph - N/A   Mostly Cloudy
12:45 PM 48.2 °F - 32.0 °F 54% 30.53 in 20.0 mi SSW 4.6 mph - N/A   Scattered Clouds
1:45 PM 50.0 °F - 33.8 °F 54% 30.50 in 20.0 mi Calm Calm - N/A   Mostly Cloudy
2:45 PM 50.0 °F - 35.6 °F 58% 30.48 in 20.0 mi South 5.8 mph - N/A   Mostly Cloudy
3:45 PM 50.0 °F - 37.4 °F 62% 30.48 in 20.0 mi SE 5.8 mph - N/A   Mostly Cloudy
4:45 PM 48.2 °F - 37.4 °F 66% 30.47 in 10.0 mi Calm Calm - N/A   Overcast
5:45 PM 48.2 °F - 37.4 °F 66% 30.47 in 10.0 mi Calm Calm - N/A   Overcast
6:45 PM 48.2 °F - 39.2 °F 71% 30.46 in 10.0 mi South 6.9 mph - N/A   Overcast
7:45 PM 48.2 °F - 39.2 °F 71% 30.45 in 10.0 mi Calm Calm - N/A   Overcast
8:45 PM 44.6 °F - 37.4 °F 76% 30.44 in 10.0 mi Calm Calm - N/A   Overcast
9:43 PM 44.6 °F - 37.4 °F 76% 30.44 in 10.0 mi Calm Calm - N/A   Overcast
9:55 PM 46.4 °F - 39.2 °F 76% 30.42 in 10.0 mi Calm Calm - N/A   Overcast
10:15 PM 46.4 °F - 39.2 °F 76% 30.42 in 10.0 mi Calm Calm - N/A   Overcast
10:35 PM 46.4 °F - 39.2 °F 76% 30.42 in 10.0 mi Calm Calm - N/A   Overcast
10:55 PM 46.4 °F - 39.2 °F 76% 30.42 in 10.0 mi Calm Calm - N/A   Overcast
11:15 PM 46.4 °F - 37.4 °F 71% 30.41 in 10.0 mi Calm Calm - N/A   Overcast
11:35 PM 46.4 °F - 39.2 °F 76% 30.41 in 10.0 mi Calm Calm - N/A   Overcast
11:55 PM 46.4 °F - 39.2 °F 76% 30.40 in 10.0 mi Calm Calm - N/A   Overcast